Tracking 29892 objects as of 21-Nov-2024
HD Live streaming from Space Station
objects crossing your sky now

STARLINK-32416

Track STARLINK-32416 now!
10-day predictions
STARLINK-32416 is classified as:


NORAD ID: 61589
Int'l Code: 2024-187R
Perigee: 454.0 km
Apogee: 454.7 km
Inclination: 53.2 °
Period: 93.5 minutes
Semi major axis: 6825 km
RCS: Unknown
Launch date: October 18, 2024
Source: United States (US)
Launch site: AIR FORCE EASTERN TEST RANGE (AFETR)
Your satellite tracking list
Your tracking list is empty




NASA's NSSDC Master Catalog

Two Line Element Set (TLE):
1 61589U 24187R   24325.89331665 -.00000072  00000-0  81545-5 0  9996
2 61589  53.1634 116.3909 0000500  99.8400 260.2661 15.39620154  6383
Source of the keplerian elements: AFSPC